Regional Weather Roundup
Issued by NWS

Home | Current Version | Previous Version | Text Only | Print | Product List | Glossary On
Versions: 1 2 3 4 5 6 7 8 9 10 11 12 13 14 15 16 17 18 19 20 21 22 23 24 25 26 27 28 29 30 31 32 33 34 35 36 37 38 39 40 41 42 43 44 45 46 47 48 49 50
000
ASUS43 KMPX 101010
RWRMN
WEATHER ROUNDUP FOR MINNESOTA
NATIONAL WEATHER SERVICE TWIN CITIES/CHANHASSEN MN
400 AM CST WED FEB 10 2016


NOTE: "FAIR" INDICATES FEW OR NO CLOUDS BELOW 12,000 FEET WITH NO
SIGNIFICANT WEATHER AND/OR OBSTRUCTIONS TO VISIBILITY. N/A MEANS
CURRENT SKY AND/OR WEATHER CONDITIONS ARE NOT AVAILABLE.

MNZ060>063-068>070-101100-
   Twin Cities Metro

CITY           SKY/WX    TMP DP  RH WIND       PRES   REMARKS
TWIN CITIES    CLOUDY     5  -5  63 N7        30.12F WCI  -7
ST PAUL        PTCLDY     4  -4  69 NW8       30.14S WCI  -9
CRYSTAL        CLOUDY     5  -4  66 NW6       30.11  WCI  -6
BLAINE         CLOUDY     5  -2  72 NW6       30.11S WCI  -6
LAKEVILLE      PTCLDY     0  -4  85 CALM      30.11S
EDEN PRAIRIE   CLOUDY     3  -5  69 NW5       30.11F WCI  -6
SOUTH ST PAUL  CLOUDY     5  -4  64 N3        30.12S
LAKE ELMO      FAIR       1  -4  78 CALM      30.12R
$$
MNZ001>005-007-008-013>017-022>024-027-028-101100-
   Northwest Minnesota

CITY           SKY/WX    TMP DP  RH WIND       PRES   REMARKS
BEMIDJI        CLOUDY   -11 -15  82 CALM      30.09F
HALLOCK        CLOUDY     0  -8  71 SE5       30.14F WCI -10
ROSEAU         CLOUDY   -11 -17  77 E3        30.13F
WARROAD        CLOUDY   -13 -18  77 CALM      30.14F
THIEF RVR FALL CLOUDY    -2  -8  78 E8        30.12F WCI -17
CROOKSTON      CLOUDY     3  -4  72 SE5       30.15F WCI  -6
FOSSTON          N/A     -8 -13  77 CALM      30.10F
DETROIT LAKES  CLOUDY     3   0  85 E3        30.09S
MOORHEAD       CLOUDY     3  -2  78 CALM      30.13F
PARK RAPIDS    CLOUDY    -4 -10  75 CALM      30.06F
MAHNOMEN       CLOUDY    -1  -5  82 E6        30.09F WCI -12
$$
MNZ006-009>011-018-025>026-101100-
   North Central Minnesota

CITY           SKY/WX    TMP DP  RH WIND       PRES   REMARKS
BAUDETTE       PTCLDY   -20 -27  70 NW3       30.12S
FLAG ISLAND    PTCLDY   -15 -18  84 CALM      30.15S
INTL FALLS     CLOUDY   -12 -17  78 N6        30.12S WCI -26
WASKISH        CLOUDY   -17 -20  83 CALM      30.12R
LONGVILLE      CLOUDY    -6  -9  84 CALM      30.09R
GRAND RAPIDS   CLOUDY    -9 -15  77 N6        30.06S WCI -23
CRANE LAKE     CLOUDY   -24 -27  83 CALM      30.12F
ORR            CLOUDY   -18 -24  76 CALM      30.05S
COOK           PTCLDY   -20 -26  76 CALM      30.07S
WALKER         FAIR      -8 -12  82 NW3       30.09S
$$
MNZ012-019>021-037-101100-
   Northeast Minnesota

CITY           SKY/WX    TMP DP  RH WIND       PRES   REMARKS
DULUTH         FLURRIES  -8 -13  78 NW3       30.02S
ELY            CLOUDY    -6 -11  77 CALM      30.03F
HIBBING        PTCLDY   -17 -20  86 NW6       30.06S WCI -32
EVELETH        CLOUDY    -9 -15  77 CALM      30.06S
DULUTH HARBOR  CLOUDY     1  -4  78 NW9       30.12F WCI -14
TWO HARBORS    PTCLDY    -9 -15  77 CALM      30.03F
SILVER BAY     CLOUDY    -4  -9  77 CALM      30.03F
GRAND MARAIS     N/A     -5 -16  59 N20G29    30.07F WCI -28
G MARAIS ARPRT CLOUDY   -15 -20  76 N14G21    29.95S WCI -38
$$
MNZ029>031-032-039>041-046>048-054>057-064-101100-
   West Central Minnesota

CITY           SKY/WX    TMP DP  RH WIND       PRES   REMARKS
FERGUS FALLS   CLOUDY     5  -2  72 SE3       30.14S
WHEATON        LGT SNOW  10   5  79 E5        30.13S WCI   2
MORRIS         CLOUDY     7   0  72 E9        30.09F WCI  -7
ALEXANDRIA     CLOUDY     3  -5  69 NE8       30.07F WCI -10
ELBOW LAKE     CLOUDY     5  -1  75 SE5       30.10F WCI  -4
WADENA         CLOUDY    -2  -6  84 CALM      30.08S
GLENWOOD       CLOUDY     3  -2  78 NE10      30.07F WCI -12
APPLETON       CLOUDY     9   1  72 E7        30.10F WCI  -3
BENSON         CLOUDY     7   0  72 CALM      30.10F
ORTONVILLE     MOCLDY    10   3  72 E5        30.09F WCI   2
MADISON        CLOUDY    12   7  79 E7        30.11S WCI   2
WILLMAR        FAIR       7   1  78 NE5       30.10F WCI  -2
$$
MNZ033>034-036-042>043-049>051-058-059-101100-
   Central Minnesota

CITY           SKY/WX    TMP DP  RH WIND       PRES   REMARKS
ST CLOUD       CLOUDY     2  -5  72 N6        30.11F WCI  -9
SAUK CENTRE    CLOUDY     1  -4  78 CALM      30.09F
PAYNESVILLE    CLOUDY     4  -2  76 NE5       30.09F WCI  -6
AITKIN         CLOUDY    -9 -17  70 CALM      30.08S
PINE RIVER     CLOUDY    -4  -8  84 NW3       30.12S
BRAINERD       CLOUDY    -2  -7  79 NW5       30.10S WCI -12
STAPLES        CLOUDY    -2  -8  78 CALM      30.09S
LONG PRAIRIE   FAIR       1  -4  78 N5        30.08F WCI  -8
LITTLE FALLS   CLOUDY     1  -6  71 CALM      30.11F
LITCHFIELD     CLOUDY     5   0  78 N6        30.10F WCI  -6
BUFFALO        CLOUDY     4  -4  70 CALM      30.13S
MAPLE LAKE     CLOUDY     5  -1  76 N6        30.12F WCI  -6
$$
MNZ037-044-045-052-053-101100-
   East Central Minnesota

CITY           SKY/WX    TMP DP  RH WIND       PRES   REMARKS
PRINCETON      CLOUDY     3  -4  72 W5        30.11S WCI  -6
MORA           CLOUDY     0  -8  71 CALM      30.11F
CAMBRIDGE        N/A      3  -6  66 CALM      30.09F
RUSH CITY      MOCLDY     0  -6  76 N3        30.11S
MOOSE LAKE     CLOUDY    -9 -15  77 CALM      30.08S
HINCKLEY       FAIR      -2  -6  84 NW5       30.10F WCI -12
CLOQUET        PTCLDY    -8 -11  84 NW6       30.05S WCI -21
MCGREGOR       PTCLDY    -6  -9  84 CALM      30.08F
$$
MNZ071>073-080-081-089-090-097-098-101100-
   Southwest Minnesota

CITY           SKY/WX    TMP DP  RH WIND       PRES   REMARKS
MONTEVIDEO     CLOUDY     9   1  72 SE9       30.12F WCI  -5
GRANITE FALLS  CLOUDY    11   3  71 NE8       30.13S WCI  -1
CANBY          CLOUDY    16  10  78 NE5       30.10F WCI   9
MARSHALL       CLOUDY    12   7  80 E5        30.09F WCI   4
REDWOOD FALLS  CLOUDY     8   0  69 NE6       30.11F WCI  -2
OLIVIA         CLOUDY     9   1  72 NE3       30.11F
PIPESTONE      FLURRIES  16   1  53 E6        30.03F WCI   7
WINDOM         CLOUDY    10   3  72 CALM      30.07F
WORTHINGTON    CLOUDY    12   5  73 NE7       30.06F WCI   2
JACKSON        CLOUDY    12   5  73 NE6       30.07F WCI   3
TRACY          CLOUDY    14   8  79 CALM      30.08F
SLAYTON        CLOUDY    13   8  82 NE5       30.06F WCI   5
$$
MNZ065>067-074>077-082>085-091>093-101100-
   South Central Minnesota

CITY           SKY/WX    TMP DP  RH WIND       PRES   REMARKS
MANKATO        CLOUDY     3  -2  78 NW3       30.11S
NEW ULM        CLOUDY     5  -2  72 NE3       30.10F
ST JAMES       CLOUDY     9   1  72 N5        30.11F WCI   0
FAIRMONT       CLOUDY     9   0  66 N6        30.08F WCI  -1
GLENCOE        MOCLDY     6   1  79 N3        30.11F
FARIBAULT        N/A      0  -6  78 CALM      30.10F
OWATONNA       CLOUDY     0  -6  78 CALM      30.08S
WASECA         PTCLDY     3  -2  78 NW5       30.11S WCI  -6
ALBERT LEA     CLOUDY     3  -2  78 NW5       30.07S WCI  -6
$$
MNZ078>079-086>088-094>096-101100-
   Southeast Minnesota

CITY           SKY/WX    TMP DP  RH WIND       PRES   REMARKS
ROCHESTER      CLOUDY    -2  -8  76 NW10      30.05S WCI -19
RED WING       PTCLDY    -4  -9  77 W3        30.11S
STANTON        PTCLDY    -2  -7  78 CALM      30.10S
DODGE CENTER   CLOUDY     0  -6  78 NW8       30.05S WCI -15
WINONA         CLOUDY     5  -2  72 NW7       30.11S WCI  -7
AUSTIN         PTCLDY     0  -2  92 NW5       30.07R WCI -10
PRESTON        CLOUDY    -1  -8  71 NW3       30.05R
$$
ABBREVIATIONS USED IN REMARKS
   TC - TEMPERATURES IN CELSIUS
  WCI - WIND CHILL INDEX
   HX - HEAT INDEX
  VSB - VISIBILITY
$$



USA.gov is the U.S. government's official web portal to all federal, state and local government web resources and services.